User: anonymous   Login
Location: Deer Path Park
(40.5570°N, 74.8450°W)
Time: 03:25:00
(UTC-04:00)
Language:

Iridium 49 - Orbit

View from above orbital plane
View from above orbital plane
View from above satellite
View from above satellite

Ground track
Ground track

The orbit data is extracted from the following two-line orbital elements,

1 25108U 97082E   15144.29043747  .00000057  00000-0  13308-4 0  9994
2 25108 086.3991 210.9518 0002222 093.1130 334.4798 14.34215147912175
Epoch (UTC): 24 May 2015 06:58:13
Eccentricity: 0.0002222
inclination: 86.3991°
perigee height: 776 km
apogee height: 779 km
right ascension of ascending node: 210.9518°
argument of perigee: 93.1130°
revolutions per day: 14.34215147
mean anomaly at epoch: 334.4798°
orbit number at epoch: 91217

The dashed part of the orbit path shows where the satellite is in the earth's shadow,  

DLR